GSAT0103 (GALILEO-FM3)

Last updated on Fri Sep 04 2026 00:02:48 GMT+0000 (Coordinated Universal Time)

1 38857U 12055A 26245.90530772 .00000017 00000+0 00000+0 0 9992 2 38857 55.8537 99.4113 0002169 315.8141 44.2565 1.70473387 86330
UTC large
Height (km)
Speed (km/s)
/
Latitude / Longitude
Inclination (degrees)
Orbital Period (minutes)
Azimuth
Elevation
Range (km)
Doppler Factor

Next 0 passes for location: London (51.5072 / 0.1276)

No passes found over London.
GSAT0103 (GALILEO-FM3)